EDT,Max TemperatureF,Mean TemperatureF,Min TemperatureF,Max Dew PointF,MeanDew PointF,Min DewpointF,Max Humidity, Mean Humidity, Min Humidity, Max Sea Level PressureIn, Mean Sea Level PressureIn, Min Sea Level PressureIn, Max VisibilityMiles, Mean VisibilityMiles, Min VisibilityMiles, Max Wind SpeedMPH, Mean Wind SpeedMPH, Max Gust SpeedMPH,PrecipitationIn, CloudCover, Events, WindDirDegrees
2011-10-1,64,58,53,56,53,51,94,81,67,29.76,29.71,29.65,10,9,2,15,7,16,0.26,7,Rain,322
2011-10-2,57,54,50,50,48,45,94,85,63,29.92,29.80,29.73,10,10,10,12,6,,0.04,8,Rain,187
2011-10-3,57,52,48,46,44,41,93,82,58,30.09,30.00,29.94,10,10,7,7,4,,0.01,7,Rain,201
2011-10-4,64,55,46,50,48,45,93,72,52,30.09,30.07,30.04,10,10,9,15,7,24,0.00,3,,309
2011-10-5,73,64,54,52,46,39,83,62,37,30.30,30.15,30.09,10,10,10,16,9,23,0.00,0,,315
2011-10-6,66,56,45,43,38,31,83,57,32,30.41,30.36,30.32,10,10,10,10,6,,0.00,0,,304
2011-10-7,69,58,48,46,40,35,83,52,30,30.51,30.46,30.37,10,10,10,12,3,,0.00,0,,48
2011-10-8,77,62,48,51,48,44,90,67,35,30.54,30.49,30.44,10,10,10,7,2,,0.00,0,,260
2011-10-9,84,67,50,56,53,48,93,64,32,30.45,30.39,30.33,10,10,9,7,2,,0.00,0,,298
2011-10-10,81,68,55,58,54,52,89,65,39,30.31,30.26,30.17,10,10,10,10,3,,0.00,0,,334
2011-10-11,73,66,60,57,54,48,86,63,43,30.20,30.17,30.14,10,10,10,12,5,,0.00,0,,70
2011-10-12,63,61,59,58,56,54,96,84,72,30.15,30.05,29.91,10,9,5,16,10,24,0.04,7,Rain,64
2011-10-13,68,62,59,66,60,57,97,93,90,29.87,29.79,29.67,9,5,2,13,9,,0.00,8,,66
2011-10-14,72,66,57,67,61,44,96,80,62,29.62,29.53,29.39,10,10,5,13,7,29,0.02,6,Rain,182
2011-10-15,66,60,54,43,38,32,64,44,27,29.85,29.71,29.66,10,10,10,23,16,32,0.00,2,,246
2011-10-16,68,60,53,46,36,33,54,44,32,29.97,29.87,29.72,10,10,10,20,10,26,0.00,1,,233
2011-10-17,68,60,51,48,41,30,80,52,25,29.86,29.80,29.71,10,10,10,17,8,25,0.00,2,,264
2011-10-18,71,58,46,54,44,35,93,63,28,29.91,29.87,29.83,10,10,7,7,2,,0.00,2,,94
2011-10-19,69,64,60,67,61,55,100,93,83,29.83,29.58,29.33,10,5,2,24,11,36,0.80,8,Rain,66
2011-10-20,70,62,55,70,54,39,100,73,46,29.75,29.46,29.31,10,9,6,21,10,33,0.02,6,Rain,199
2011-10-21,57,52,46,41,39,37,80,60,49,30.08,29.95,29.77,10,10,10,17,12,25,0.00,3,,261
2011-10-22,59,50,42,42,40,38,87,67,53,30.14,30.11,30.08,10,10,10,12,6,,0.00,4,,284
2011-10-23,62,52,42,43,39,36,89,67,44,30.18,30.14,30.10,10,10,7,7,2,,0.00,1,,279
2011-10-24,64,52,42,50,45,39,89,74,54,30.16,30.08,29.98,10,8,4,12,2,,0.00,2,Rain,233
2011-10-25,64,54,45,49,39,33,90,60,33,30.14,30.08,30.03,10,10,7,17,8,22,0.00,0,,280
2011-10-26,64,54,45,51,45,39,90,69,54,30.08,29.89,29.76,10,10,10,10,2,,0.00,3,,224
2011-10-27,62,52,41,59,49,35,94,88,78,30.00,29.72,29.60,10,8,2,17,6,26,0.32,7,Rain,317
2011-10-28,51,43,36,36,28,23,81,59,35,30.27,30.19,30.01,10,10,10,12,5,16,0.00,2,,8
2011-10-29,46,39,33,36,32,30,93,88,58,30.22,29.98,29.84,10,5,0,23,13,29,1.25,8,Fog-Rain-Snow,18
2011-10-30,48,40,33,32,30,27,93,73,46,30.38,30.21,29.99,10,10,9,15,9,23,0.00,1,Rain-Snow,304
2011-10-31,54,42,30,39,32,27,92,72,38,30.43,30.37,30.30,10,9,6,9,2,,0.01,1,,118